User: anonymous   Login
Location: Unspecified
(0.0000°N, 0.0000°E)
Time: 18:54:27
(UTC+00:00)
Language:

ATEX - Orbit

View from above orbital plane
View from above orbital plane
View from above satellite
View from above satellite

Ground track
Ground track

The orbit data is extracted from the following two-line orbital elements,

1 25615U 98055C   17227.87669758 0.00000050  00000-0  14362-4 0    09
2 25615  84.9871 118.8828 0007000 307.6239  52.3759 14.44962190    02
Epoch (UTC): 15 August 2017 21:02:26
Eccentricity: 0.0007000
inclination: 84.9871°
perigee height: 737 km
apogee height: 747 km
right ascension of ascending node: 118.8828°
argument of perigee: 307.6239°
revolutions per day: 14.44962190
mean anomaly at epoch: 52.3759°
orbit number at epoch: 0

The dashed part of the orbit path shows where the satellite is in the earth's shadow,  

DLR